星链-35130(STARLINK-35130)

导读

STARLINK-35130是美国SpaceX星链星座的一员,于2025年9月25日发射入轨。星链项目旨在构建全球卫星互联网星座,为全球偏远地区及网络覆盖薄弱区域提供高速宽带服务,该卫星进一步扩充了星链在轨卫星规模,助力提升星座服务覆盖密度与网络稳定性,是星链低轨星座建设进程中的新增组网卫星。

Basic Information
目录编号:
65740
目录名称:
STARLINK-35130
国际标识:
2025-216G
轨道中心:
EARTH
卫星名称:
星链-35130
卫星全名:
星链-35130(STARLINK-35130)
卫星状态:
在轨 (已飞行353 天)
发射日期:
2025-09-25 UTC
国别 :
美国 (US)
星等 :
--
This satellite is enrolled in the Space Conjunction Data Service (SCDS) and the current flight risk assessment level is: No High Risk
Orbit Information
数据来源 国际轨道数据
星历时间: 2026-09-12T11:11:36+0800
1天前
查看轨道信息
半长轴: 6840.861km
偏心率: 0.0001378
轨道倾角: 53.160°
近地点辐角 81.063°
升交点赤经 185.132°
平近点角 279.053°
近地点: 461.781km
远地点: 463.667km
周期: 93.848分钟
每日圈数: 15.343931
Detailed Information
固有亮度:
5
最大亮度:
2.5
卫星平台:
Starlink V1.0
覆盖范围:
全球
运营商:
太空探索技术公司
运营商所在国:
美国
制造商(研发单位):
太空探索技术公司
制造商所在国:
美国
使用方式:
暂无
Satellite Introduction
Starlink 计划是 SpaceX 推出的全球卫星互联网项目,通过发射低轨道卫星,为全球尤其是偏远地区提供高速、低延迟的互联网服务。自 2019 年起,Starlink 已部署数千颗卫星,旨在缩小全球数字鸿沟,推动互联网普及。该项目还为军事、航空等行业提供通信支持,带来广泛经济效益。
2D Orbit Map
3D Orbit Map
Orbit Altitude Analysis Chart
Orbit Inclination Analysis Chart
Orbit Comprehensive Analysis Chart
View Comprehensive Chart
Conjunction Data List
Event ID Objects TCA Miss Dist (km) Collision Risk Probability Collision Risk Index (CRI) Action
CDM_260910-152204-846806-574021
2026-09-10T
15:22:04+0000
0.207 km
中距离
7.123031E-4 高风险 0.92
CDM_260909-205706-028406-574021
2026-09-09T
20:57:43+0000
1.039 km
极远距离
1.372612E-5 中风险 0.58
CDM_260910-134804-846806-574021
2026-09-10T
13:48:17+0000
1.761 km
极远距离
3.458038E-6 低风险 0.46
CDM_260909-223106-028406-574021
2026-09-09T
22:31:30+0000
2.301 km
极远距离
1.293297E-6 低风险 0.37
Miss Distance Evolution Trend with All Objects
Collision Probability Evolution Trend with All Objects